Content
SEND FEEDBACK

Daily
Averages
Monthly
Summary
Brazil

TERESINA, PIAUI


Home > South America > Brazil > Piaui
Elevation: 328 feet     Latitude: 05 03S     Longitude: 042 48W

WEATHER
 
SELECT A DAY
Number of Records: 163,626;   Date Range: 6/30/96 - 7/20/14
 
SHARE

PRINT THIS DATA

[ ← Previous Day ]
WEATHER ALMANAC - JANUARY 16, 2013
[ Next Day → ]
[ °C ]   °F
Weather ElementAverageHighLow
Temperature83.6 °F93.2 °F (3:00 pm)75.2 °F (1:00 am)
Dewpoint75.6 °F78.8 °F (9:00 pm)73.4 °F (1:00 pm)
Humidity78.2 %100 % (1:00 am)47 % (3:00 pm)
Barometer29.79 in29.87 in (9:00 am)29.71 in (5:00 pm)
Wind Speed2 mph8.1 mph (11:00 pm)
Weather ElementAverage
Visibility7.3 mi
Wind DirectionSSE (151.9 °)

Weather ElementTotal
Precipitation---
Cooling Degree Days19.2 (Base 65)
Growing Degree Days34.2 (Base 50)
Averaged from 28 records on January 16, 2013
WEATHER CONDITIONS BREAKOUT
WIND DIRECTION BREAKOUT
WEATHER BY HOUR - JANUARY 16, 2013
[ °C ]   °F
Local TimeTemperatureDewpointHumidityBarometerVisibilityWind DirectionWind SpeedGust SpeedPrecipitationEventsConditions
1:00 AM75.2 °F75.2 °F100 %29.77 in6.2 miNNW (330°)1.2 mphScattered Clouds
2:00 AM77.0 °F75.2 °F94 %29.77 inCalmClear
3:00 AM76.0 °F75.0 °F96 %29.78 in12.0 miWNW (290°)1.2 mphScattered Clouds
3:00 AM75.2 °F75.2 °F100 %29.77 in6.2 miWNW (290°)1.2 mphScattered Clouds
3:45 AM75.2 °F75.2 °F100 %29.80 in6.2 miWNW (300°)1.2 mphMostly Cloudy
4:00 AM75.2 °F75.2 °F100 %29.80 in6.2 miWNW (290°)1.2 mphMostly Cloudy
5:00 AM77.0 °F75.2 °F94 %29.80 in6.2 miSE (140°)2.3 mphMostly Cloudy
6:00 AM77.0 °F75.2 °F94 %29.83 in6.2 miSSE (150°)1.2 mphScattered Clouds
7:00 AM77.0 °F77.0 °F100 %29.83 in6.2 miCalmMostly Cloudy
8:00 AM78.8 °F75.2 °F89 %29.86 in6.2 miSouth (170°)3.5 mphScattered Clouds
9:00 AM82.0 °F76.0 °F78 %29.87 in12.0 miCalmScattered Clouds
9:00 AM82.4 °F77.0 °F84 %29.86 in6.2 miCalmMostly Cloudy
10:00 AM84.2 °F75.2 °F74 %29.86 in6.2 miEast (80°)2.3 mphScattered Clouds
11:00 AM87.8 °F75.2 °F66 %29.83 in6.2 miSSE (150°)2.3 mphScattered Clouds
12:00 PM89.6 °F75.2 °F62 %29.83 in6.2 miSE (130°)2.3 mphScattered Clouds
1:00 PM91.4 °F73.4 °F55 %29.80 in6.2 miSE (130°)3.5 mphScattered Clouds
2:00 PM91.4 °F75.2 °F59 %29.77 in6.2 miSSE (150°)3.5 mphScattered Clouds
3:00 PM93.0 °F75.0 °F47 %29.75 in12.0 miSouth (170°)4.6 mphScattered Clouds
3:00 PM93.2 °F75.2 °F56 %29.74 in6.2 miSouth (170°)4.6 mphPartly Cloudy
4:00 PM93.2 °F75.2 °F56 %29.74 in6.2 miSouth (170°)4.6 mphScattered Clouds
5:00 PM93.2 °F73.4 °F52 %29.71 in6.2 miSSW (200°)4.6 mphPartly Cloudy
6:00 PM91.4 °F73.4 °F55 %29.74 inCalmClear
7:00 PM87.8 °F77.0 °F70 %29.74 inCalmClear
8:00 PM86.0 °F77.0 °F74 %29.80 inNW (320°)2.3 mphClear
9:00 PM84.0 °F78.0 °F78 %29.78 in12.0 miCalmMostly Cloudy
9:00 PM84.2 °F78.8 °F84 %29.77 inCalmClear
10:00 PM82.4 °F77.0 °F84 %29.80 inCalmClear
11:00 PM80.6 °F77.0 °F89 %29.83 in6.2 miNW (320°)8.1 mphMostly Cloudy
Hourly data recorded from SBTE, located miles away from Teresina, Piaui







STORIES FROM OUR PARTNERS